Flag for United Kingdom

Past Weather in Dudley, England, United Kingdom — Yesterday and Last 2 Weeks

Now
55 °F

Passing clouds.


Feels Like: 54 °F
Forecast: 54 / 44 °F
Wind: 7 mph from West

Location: Birmingham / Airport
Current Time: Oct 1, 2020 at 3:57:27 pm
Latest Report: Oct 1, 2020 at 3:20 pm
Visibility: N/A
Pressure29.42 "Hg
Humidity: 55%
Dew Point: 39 °F
Location of DudleyLocation

Past Weather in Dudley — Graph

°F

Dudley Temperature Yesterday

Maximum temperature yesterday: 57 °F (at 12:20 pm)
Minimum temperature yesterday: 43 °F (at 3:50 am)
Average temperature yesterday: 52 °F

High & Low Weather Summary for the Past Weeks

 TemperatureHumidityPressure
High73 °F (Sep 21, 4:20 pm)100% (Sep 21, 7:20 am)30.45 "Hg (Sep 21, 7:20 am)
Low37 °F (Sep 28, 6:20 am)36% (Sep 22, 1:20 pm)29.30 "Hg (Sep 24, 9:20 am)
Average55 °F78%29.90 "Hg
* Reported Sep 16 2:20 pm — Oct 1 2:20 pm, Dudley. Weather by CustomWeather, © 2020

Note: Actual official high and low records may vary slightly from our data, if they occured in-between our weather recording intervals... More about our weather records

Dudley Weather History for the Previous 24 Hours

Scroll right to see more
 ConditionsComfort  
Time TempWeatherWind HumidityBarometerVisibility
2:20 pm
Thu, Oct 1
55 °FScattered clouds.6 mph59%29.42 "HgN/A
1:50 pm55 °FScattered clouds.7 mph63%29.45 "HgN/A
1:20 pm55 °FScattered clouds.8 mph67%29.45 "HgN/A
12:50 pm54 °FScattered clouds.6 mph67%29.45 "HgN/A
12:20 pm54 °FScattered clouds.3 mph72%29.45 "HgN/A
11:50 am54 °FScattered clouds.6 mph72%29.47 "HgN/A
11:20 am54 °FScattered clouds.5 mph72%29.47 "HgN/A
10:50 am52 °FOvercast.6 mph77%29.47 "HgN/A
10:20 am52 °FScattered clouds.6 mph77%29.47 "HgN/A
9:50 am50 °FBroken clouds.7 mph88%29.47 "HgN/A
9:20 am50 °FScattered clouds.8 mph88%29.47 "HgN/A
8:50 am50 °FScattered showers. Partly sunny.8 mph88%29.47 "HgN/A
8:20 am50 °FBroken clouds.5 mph94%29.47 "HgN/A
7:50 am48 °FPartly sunny.5 mph94%29.47 "HgN/A
7:20 am48 °FPartly sunny.3 mph94%29.47 "HgN/A
6:50 am48 °FPassing clouds.5 mph94%29.47 "HgN/A
6:20 am48 °FPassing clouds.3 mph94%29.47 "HgN/A
5:50 am48 °FClear.3 mph94%29.47 "Hg10 mi
5:20 am48 °FPassing clouds.6 mph94%29.47 "HgN/A
4:50 am48 °FPassing clouds.5 mph100%29.47 "HgN/A
4:20 am48 °FMostly cloudy.3 mph100%29.47 "Hg6 mi
3:50 am48 °FPassing clouds.6 mph94%29.47 "HgN/A
3:20 am48 °FPassing clouds.5 mph94%29.47 "Hg4 mi
2:50 am50 °FClear.3 mph94%29.47 "Hg10 mi
2:20 am50 °FPassing clouds.5 mph94%29.47 "HgN/A
1:50 am50 °FClear.6 mph94%29.47 "Hg10 mi
1:20 am52 °FPassing clouds.7 mph94%29.47 "HgN/A
12:50 am52 °FPassing clouds.7 mph94%29.47 "HgN/A
12:20 am52 °FPassing clouds.7 mph100%29.50 "HgN/A
11:50 pm
Wed, Sep 30
52 °FPassing clouds.5 mph100%29.50 "HgN/A
11:20 pm54 °FPassing clouds.3 mph94%29.47 "HgN/A
10:50 pm54 °FPassing clouds.5 mph94%29.50 "HgN/A
10:20 pm55 °FPassing clouds.5 mph94%29.50 "HgN/A
9:50 pm55 °FPassing clouds.6 mph94%29.50 "HgN/A
9:20 pm55 °FMostly cloudy.6 mph94%29.50 "HgN/A
8:50 pm55 °FPartly cloudy.6 mph100%29.50 "HgN/A
8:20 pm55 °FPassing clouds.7 mph100%29.50 "HgN/A
7:50 pm55 °FPassing clouds.7 mph100%29.50 "HgN/A
7:20 pm55 °FPartly cloudy.7 mph100%29.50 "HgN/A
6:50 pm55 °FRain. Mostly cloudy.7 mph100%29.50 "Hg3 mi
6:20 pm55 °FRain. Mostly cloudy.8 mph100%29.50 "Hg2 mi
5:50 pm55 °FLight rain. Partly sunny.8 mph94%29.53 "HgN/A
5:20 pm55 °FLight rain. Partly sunny.10 mph94%29.53 "HgN/A
4:50 pm55 °FLight rain. More clouds than sun.12 mph94%29.53 "HgN/A
4:20 pm55 °FRain. Mostly cloudy.12 mph94%29.56 "Hg6 mi
3:50 pm55 °FRain. Broken clouds.12 mph94%29.56 "Hg6 mi
3:20 pm55 °FLight rain. Broken clouds.9 mph94%29.56 "Hg6 mi
Weather by CustomWeather, © 2020

See weather overview